{"data":{"norad_id":46610,"epoch":"2026-09-20T05:30:22.544640Z","epoch_age_seconds":49155,"freshness":"FRESH","line1":"1 46610U 20071A   26263.22942760 -.00000367  00000+0  00000+0 0  9993","line2":"2 46610   0.1443  80.4830 0059001 121.2035 358.5179  1.00272398 21871","mean_motion":1.00272398,"eccentricity":0.0059001,"inclination_deg":0.1443,"raan_deg":80.483,"arg_perigee_deg":121.2035,"mean_anomaly_deg":358.5179,"bstar":0,"rev_number":2187,"period_min":1436.0881246702,"perigee_km":35537.647994774,"apogee_km":36035.198237053,"semimajor_km":42164.560115914,"source":"CELESTRAK","updated_at":"2026-09-20T09:00:35.295665Z"}}